パンスターズ彗星

C/2015 H2 ( PanSTARRS )

English version
Home page
Updated on October 8, 2017

---------------------------------------------------------------------

・ プロフィール

発見日 2015年4月24日
発見光度 19.7等
発見者 Pan-STARRS 1 telescope (Haleakala)

・ 写真集

・ 軌道要素

Epoch 2016 Sept. 9.0 TT = JDT 2457640.5
T 2016 Sept. 13.26449 TT                                MPCW
q   4.9670925            (2000.0)            P               Q
z  -0.0006465      Peri.  287.90686     +0.17539246     +0.98039915
 +/-0.0000018      Node   350.69240     -0.55230520     +0.02251981
e   1.0032110      Incl.   33.70514     -0.81498248     +0.19573035
From 90 observations 2015 Apr. 20-2016 Nov. 3, mean residual 0".4.

・ 光度変化

        m1 = 7.0 + 5 logΔ + 10.0 log r

---------------------------------------------------------------------

軌道要素はM.P.E.C. 2016-V116に掲載されたものです。
光度グラフはComet for Windowsで作成したものです。

---------------------------------------------------------------------

Copyright(C) Seiichi Yoshida (comet@aerith.net). All rights reserved.